Regional Weather Roundup
Issued by NWS

Home | Current Version | Previous Version | Text Only | Print | Product List | Glossary On
Versions: 1 2 3 4 5 6 7 8 9 10 11 12 13 14 15 16 17 18 19 20 21 22 23 24 25 26 27 28 29 30 31 32 33 34 35 36 37 38 39 40 41 42 43 44 45 46 47 48 49 50
000
ASUS43 KDTX 161510
RWRMI
MICHIGAN HOURLY REGIONAL WEATHER ROUNDUP
NATIONAL WEATHER SERVICE DETROIT/PONTIAC MI
1100 AM EDT WED APR 16 2014

NOTE: "FAIR" INDICATES FEW OR NO CLOUDS BELOW 12,000 FEET WITH NO
SIGNIFICANT WEATHER AND/OR OBSTRUCTION TO VISIBILITY.

MIZ047>049-052>055-059>063-066>070-074>076-081>083-161600-
SOUTHEAST LOWER MICHIGAN

CITY           SKY/WX    TMP DP  RH WIND       PRES   REMARKS
ADRIAN         SUNNY     34  15  46 S10       30.44S
ALMA           SUNNY     34  15  46 S8        30.42R
ANN ARBOR      SUNNY     34  11  38 S8        30.43S
BAD AXE        MOSUNNY   32  17  55 SW3       30.44R
DETROIT CITY   SUNNY     36  11  35 S9        30.46S
DETROIT        PTSUNNY   34  10  37 SE5       30.46S
FLINT          SUNNY     35  12  38 S8        30.44R
GROSSE ILE     SUNNY     36  14  41 S3        30.45S
HILLSDALE      SUNNY     35  15  44 S10       30.40S
HOWELL         SUNNY     33  13  43 SE8       30.42R

CITY           SKY/WX    TMP DP  RH WIND       PRES   REMARKS
JACKSON        SUNNY     36  13  38 SE10      30.40F
LAMBERTVILLE   SUNNY     37  10  32 S3        30.45S
LANSING        SUNNY     36  13  38 SE8       30.41S
LAPEER         NOT AVBL
MASON          SUNNY     35  17  47 S9        30.41S
MONROE         SUNNY     36  14  41 S6        30.44S
MT. CLEMENS    MOSUNNY   35  11  37 S8        30.44S
PONTIAC        MOSUNNY   32   9  38 S6        30.42R
PORT HOPE        N/A     33  20  58 VRB3      30.43R
PORT HURON     SUNNY     34  16  47 SE3       30.46S
TRI CITIES     SUNNY     34  14  43 VRB6      30.43R
YPSILANTI      SUNNY     36  11  35 SE6       30.45R
$$
MIZ043>046-050>051-056>058-064>065-071>073-077>080-161600-
SOUTHWEST LOWER MICHIGAN

CITY           SKY/WX    TMP DP  RH WIND       PRES   REMARKS
BATTLE CREEK   PTSUNNY   36  16  44 S14       30.39S
BENTON HARBOR  SUNNY     38  20  48 SE10      30.36F
BIG RAPIDS     SUNNY     34  17  49 S14       30.37R
COLDWATER      SUNNY     36  14  41 SE8       30.40R
HOLLAND        SUNNY     38  19  46 S10       30.38S
GRAND RAPIDS   MOSUNNY   38  18  44 S10       30.40R
KALAMAZOO      SUNNY     37  15  40 S15       30.39R
MARSHALL       PTSUNNY   35  14  43 SE9       30.40R
MUSKEGON       PTSUNNY   38  16  40 SE10      30.38S
$$
MIZ016>042-161600-
NORTHERN LOWER MICHIGAN

CITY           SKY/WX    TMP DP  RH WIND       PRES   REMARKS
ALPENA         SUNNY     28  14  55 S7        30.41S
BEAVER ISLAND  PTSUNNY   31  22  71 SE8       30.36S
BELLAIRE       MOSUNNY   35  21  57 SW8       30.37S
CADILLAC       SUNNY     32  17  54 S10       30.33S
CHARLEVOIX     SUNNY     34  24  67 S8        30.40R
FRANKFORT      SUNNY     35  18  49 S10G16    30.36R
GAYLORD        MOSUNNY   29  19  66 SW6       30.34R
GRAYLING       SUNNY     33  19  55 S7        30.36S
HARBOR SPRINGS SUNNY     32  24  71 S5        30.37S
HOUGHTON LAKE  SUNNY     31  18  58 W6        30.37R
MANISTEE       SUNNY     36  16  44 S8        30.37R
OSCODA         MOSUNNY   33  20  59 S5        30.43R
PELLSTON       SUNNY     27  18  69 SE8       30.39R
TRAVERSE CITY  MOSUNNY   35  17  47 SE8       30.36S
$$
MIZ007>008-015-161600-
EASTERN UPPER MICHIGAN

CITY           SKY/WX    TMP DP  RH WIND       PRES   REMARKS
KINROSS        SUNNY     30   9  40 SW5       30.37R
MACKINAC ISLAN SUNNY     26  15  62 S9        30.38R
NEWBERRY       SUNNY     26  13  57 S10       30.35R
S. S. MARIE    SUNNY     26  10  50 SE5       30.37R
$$
MIZ004>006-011>014-085-161600-
CENTRAL UPPER MICHIGAN

CITY           SKY/WX    TMP DP  RH WIND       PRES   REMARKS
MANISTIQUE     SUNNY     29  23  78 SE12      30.35R
ESCANABA       PTSUNNY   30  18  59 SE8       30.32S
MENOMINEE      CLOUDY    34  23  64 S14G20    30.30S
SAWYER-GWINN   CLOUDY    28  21  74 S9        30.27S
$$
MIZ001>003-009>011-084-161600-
WESTERN UPPER MICHIGAN

CITY           SKY/WX    TMP DP  RH WIND       PRES   REMARKS
IRON MOUNTAIN  CLOUDY    27  16  63 SE7       30.25F
HOUGHTON       MOSUNNY   25  12  58 S6        30.25R
COPPER HARBOR    N/A     30  15  53 CALM      30.28S
IRONWOOD       CLOUDY    27  16  63 SE7       30.17R
$$

ABBREVIATIONS USED IN REMARKS
   TC - TEMPERATURE IN CELSIUS
  WCI - WIND CHILL INDEX
   HX - HEAT INDEX
  VSB - VISIBILITY




USA.gov is the U.S. government's official web portal to all federal, state and local government web resources and services.